Location: Dal�� Lhota
(48.7500°N, 14.0167°E)
Time: 17:45:33
(UTC+00:00)

X-37B - Visible Passes

Search period start: 13 June 2021 00:00
Search period end: 23 June 2021 00:00
Orbit: 386 x 389 km, 45.0° (Epoch: 10 June)

Date Brightness Start Highest point End Pass type
(mag) Time Alt. Az. Time Alt. Az. Time Alt. Az.
13 Jun 2.8 00:51:59 14° SSE 00:51:59 14° SSE 00:53:33 10° ESE visible
14 Jun 1.7 01:28:09 19° SSW 01:29:40 27° SSE 01:32:25 10° ESE visible
15 Jun 2.3 00:32:04 19° SE 00:32:04 19° SE 00:33:54 10° ESE visible
15 Jun 1.2 02:04:40 10° WSW 02:07:40 40° S 02:10:41 10° ESE visible
16 Jun 1.3 01:08:13 25° SSW 01:09:25 35° SSE 01:12:21 10° ESE visible
17 Jun 2.1 00:12:08 23° SE 00:12:08 23° SE 00:13:57 10° ESE visible
17 Jun 1.0 01:44:27 10° WSW 01:47:29 42° S 01:50:30 10° ESE visible
18 Jun 1.0 00:48:20 32° SW 00:49:12 40° S 00:52:13 10° ESE visible
18 Jun 2.2 23:52:21 23° ESE 23:52:21 23° ESE 23:53:53 10° ESE visible
19 Jun 1.1 01:24:37 12° WSW 01:27:16 39° S 01:30:16 10° ESE visible
20 Jun 0.9 00:28:46 41° SSW 00:29:00 42° S 00:32:02 10° ESE visible
20 Jun 1.7 02:02:35 10° WSW 02:05:17 25° SSW 02:07:59 10° SE visible
20 Jun 3.0 23:33:13 14° ESE 23:33:13 14° ESE 23:33:45 10° ESE visible
21 Jun 1.3 01:05:32 21° WSW 01:07:04 33° SSW 01:09:57 10° SE visible
22 Jun 2.4 00:10:40 19° SE 00:10:40 19° SE 00:11:48 10° ESE visible
22 Jun 2.1 01:43:04 12° WSW 01:44:58 18° SSW 01:47:16 10° SSE visible
